Wind_Speed
18 26 28 25 23 20 20 21 20 19 19 19 19 18 19 19 19 18 18 18 20 21 22 22 23 23 22 22 22 23 23 25 25 26 27 25 25 25 23 23 22 22 23
23 26 29 26 25 22 20 21 21 20 20 20 19 18 19 19 18 17 18 19 20 21 21 22 23 22 22 22 22 23 25 25 25 25 24 24 24 23 21 23 23 22 22
27 28 28 27 26 23 21 22 22 21 19 19 19 19 19 19 18 17 18 19 21 22 22 22 23 23 23 23 23 24 25 25 24 23 20 19 20 22 22 24 23 22 22
27 28 27 28 27 26 22 22 22 21 20 19 19 19 19 19 18 18 19 19 21 22 23 23 24 24 23 23 24 25 25 24 21 18 18 18 18 20 20 21 20 21 23
26 26 28 30 28 28 25 23 22 21 21 19 20 20 19 19 19 20 19 20 22 23 23 23 24 23 23 23 23 23 22 21 18 17 17 16 16 16 19 19 19 19 21
25 25 28 31 29 25 26 24 23 22 21 21 21 22 21 20 21 22 21 24 24 24 24 24 23 23 22 21 22 21 21 19 17 16 17 16 16 15 17 19 20 19 19
25 25 28 31 29 25 27 25 24 22 22 22 21 21 22 23 22 24 24 26 26 25 25 24 22 22 20 21 22 20 15 15 16 19 19 17 17 17 17 18 18 19 18
24 25 27 30 30 26 26 26 25 23 22 22 23 23 24 24 25 24 26 26 26 25 25 24 23 21 20 21 21 20 19 16 15 16 19 18 17 17 17 17 18 20 20
24 26 29 27 29 27 26 25 24 22 22 22 23 23 23 22 24 26 27 26 26 25 23 23 22 21 21 21 21 20 20 18 17 17 19 18 17 16 17 17 17 19 21
25 26 29 29 27 25 25 24 24 23 23 23 24 25 26 27 27 26 25 27 27 27 25 24 23 23 22 21 21 21 23 22 19 17 14 18 16 16 17 16 16 17 19
25 27 28 30 29 26 24 25 25 25 25 25 26 29 30 28 27 25 26 30 29 28 27 25 24 23 23 21 18 16 18 21 21 20 16 13 15 16 17 15 17 17 19
24 29 28 30 30 28 25 26 25 27 26 26 28 27 26 28 27 30 31 29 28 27 27 28 27 23 22 22 20 18 23 20 21 20 19 15 15 13 15 15 17 17 20
32 30 30 32 31 29 28 28 27 29 26 29 26 29 31 31 31 34 31 26 24 23 25 20 15 15 15 18 22 22 21 20 19 17 17 15 11 10 13 14 15 16 17
34 33 33 32 31 30 28 28 27 27 31 29 29 33 34 33 33 32 25 17 17 16 16 13 12 16 17 18 17 14 17 17 17 16 14 13 9 7 8 12 15 17 18
33 33 32 33 33 33 29 29 28 31 34 31 31 36 33 29 23 25 21 16 18 19 17 16 16 17 18 18 17 17 17 14 12 13 13 12 9 8 8 11 13 16 19
32 33 32 35 36 33 32 32 31 34 34 31 28 29 22 21 21 24 26 19 20 18 18 17 23 23 21 18 19 19 17 18 16 16 15 11 8 7 7 12 15 17 19
32 33 34 34 38 34 35 36 33 32 34 34 25 24 22 20 20 29 23 20 19 18 20 26 24 24 21 18 20 22 23 22 20 19 19 16 8 5 10 13 17 18 20
31 34 34 34 40 35 38 37 35 34 33 34 26 23 20 20 23 22 22 22 21 22 25 28 23 21 20 20 23 25 25 26 24 24 25 24 25 26 19 19 14 21 25
31 34 33 36 39 38 38 39 34 35 34 34 24 21 21 23 21 21 21 22 25 28 25 21 20 20 21 21 23 23 23 25 23 23 28 31 34 36 34 32 34 31 30
33 32 41 37 37 40 38 37 35 35 35 36 23 23 26 26 21 21 21 26 28 25 22 21 22 19 21 26 24 24 21 22 21 22 22 24 30 36 38 38 37 33 29
31 37 31 35 39 42 39 36 33 34 35 36 26 27 31 27 22 21 24 26 24 24 23 23 24 26 23 29 27 25 22 18 20 19 19 21 22 26 29 31 31 29 27
30 31 35 36 40 38 41 37 32 35 33 36 32 34 30 25 25 23 27 27 25 25 25 25 27 25 24 22 11 13 3 6 13 14 14 16 18 19 22 23 26 27 25
32 30 34 35 38 38 32 36 31 34 30 28 33 36 30 25 27 25 28 28 27 27 29 28 27 28 18 17 20 5 4 3 6 7 9 11 13 16 17 19 20 20 19
27 31 32 38 41 38 37 41 44 34 28 30 38 38 36 25 25 26 28 28 27 27 29 29 27 21 24 22 16 7 5 12 3 3 4 6 8 11 13 14 15 16 17
28 30 35 39 38 37 42 39 41 32 33 34 31 37 38 29 27 27 28 28 29 28 29 29 28 20 21 23 14 12 7 8 10 6 3 7 6 6 8 10 12 13 13
25 29 33 36 34 38 40 36 36 35 34 36 36 35 37 36 29 26 27 26 28 27 30 31 30 24 20 18 17 13 13 7 11 6 4 9 10 5 4 7 9 11 11
Wind_Direction
159 165 165 168 164 157 156 157 155 150 143 140 136 132 130 132 129 130 123 122 119 117 117 116 112 108 105 104 102 104 103 102 100 98 94 92 89 88 88 86 85 87 88
161 164 164 171 167 161 158 157 158 152 144 144 140 135 129 137 130 129 126 123 119 120 119 117 115 113 108 106 108 104 102 101 98 93 89 89 90 90 90 92 92 91 90
161 163 163 171 168 164 161 160 159 150 151 148 146 140 137 136 133 130 128 125 122 119 120 118 115 113 113 111 111 108 104 98 93 90 88 84 83 87 91 91 90 92 91
161 163 164 171 170 166 162 160 158 155 152 151 149 145 143 140 136 131 129 126 123 121 119 118 119 118 116 114 113 111 105 98 93 92 91 90 86 84 88 87 92 91 93
163 164 168 168 169 167 165 163 162 161 158 156 151 151 146 142 141 135 132 128 126 123 122 122 121 119 116 114 112 111 105 100 99 95 87 88 91 89 87 88 90 99 99
165 165 173 169 167 169 170 164 166 169 163 157 153 152 147 143 139 136 134 131 128 125 124 123 121 119 116 114 110 107 102 93 92 88 91 90 94 100 96 99 95 102 99
168 167 172 171 166 164 163 166 172 170 164 157 155 154 149 143 141 140 139 132 128 126 126 122 117 115 113 114 110 109 96 99 96 104 95 94 95 94 102 93 96 106 107
162 167 167 171 166 166 164 170 172 169 163 159 157 156 153 146 143 143 138 132 130 127 126 122 121 115 115 115 113 105 96 91 92 95 104 96 95 98 102 99 96 99 103
165 166 165 167 167 166 169 171 170 166 164 161 160 157 151 146 143 144 138 134 132 129 126 122 118 117 118 116 115 106 94 84 87 97 103 101 97 96 104 106 99 98 102
170 169 163 165 166 166 172 174 167 163 160 159 157 147 145 141 139 138 133 134 130 127 126 122 124 125 122 120 119 119 110 96 85 86 95 106 101 99 105 107 103 104 103
175 172 167 164 168 166 166 172 167 162 162 158 153 149 138 135 136 133 138 137 135 131 132 130 127 125 121 115 115 112 110 107 108 98 93 100 98 98 108 106 104 102 108
178 174 174 169 169 165 164 164 159 161 154 150 149 140 140 141 145 144 142 140 139 133 128 123 116 108 107 110 109 110 104 103 101 102 101 97 96 103 111 110 111 107 105
180 177 179 172 171 167 164 164 163 158 153 154 151 158 151 152 151 146 145 145 134 131 123 118 115 107 106 107 103 105 101 106 101 94 93 93 89 107 117 121 121 116 110
181 180 179 172 172 170 167 165 165 158 158 158 164 155 154 150 147 141 140 133 129 134 130 121 110 117 119 115 109 102 97 91 93 92 96 105 102 101 113 125 128 123 113
182 178 180 172 172 167 166 162 162 161 163 164 160 154 155 141 142 150 149 137 137 134 131 124 116 114 115 114 112 111 111 100 99 102 98 112 132 138 150 140 133 124 117
181 176 177 172 171 166 165 162 162 163 170 161 154 157 158 152 159 161 146 137 138 136 132 129 129 121 107 104 109 105 101 105 97 91 96 123 142 168 166 151 142 132 123
185 179 177 172 171 169 164 166 162 167 169 169 161 161 156 157 158 155 144 143 140 141 135 136 127 123 108 103 98 102 104 97 91 89 92 99 107 171 166 144 131 125 120
192 183 180 175 172 170 167 167 165 165 173 177 163 164 163 158 153 152 148 150 149 145 140 142 135 127 116 110 106 99 99 98 90 92 87 91 86 86 111 113 118 115 114
191 185 177 173 170 169 167 172 167 175 173 173 163 163 165 158 157 153 152 158 151 142 140 137 131 126 116 117 108 105 102 96 90 92 92 88 88 93 100 106 102 104 102
194 184 182 171 168 168 162 164 169 173 178 176 164 166 170 166 161 157 158 154 149 146 146 143 136 130 124 125 112 103 97 95 92 88 89 89 91 93 99 99 100 96 94
191 189 174 172 167 164 162 159 160 166 176 182 179 171 177 176 166 163 160 156 157 154 151 148 141 136 130 134 115 97 80 85 89 85 86 88 95 98 105 109 106 105 107
189 183 181 178 169 173 170 169 168 171 178 185 183 178 178 174 171 169 166 163 161 156 154 155 151 141 142 140 143 120 118 75 75 80 89 94 99 100 103 107 109 104 106
188 182 188 178 171 176 169 159 162 167 170 173 184 184 180 178 176 174 173 169 166 164 162 164 160 153 154 172 159 141 152 146 127 70 81 93 98 102 109 108 110 111 108
190 182 179 174 180 176 172 169 172 172 168 182 185 188 187 183 179 177 176 174 173 172 172 171 171 169 168 163 175 174 131 141 153 137 87 90 103 108 111 119 123 119 116
189 181 181 178 176 178 184 183 176 172 177 183 181 188 189 182 185 182 179 178 182 180 182 178 178 180 175 176 173 153 124 120 132 138 142 150 114 113 121 122 124 124 123
188 189 180 176 177 181 183 186 176 178 174 174 185 185 188 189 185 188 185 187 186 185 186 188 186 187 175 187 185 167 161 156 172 141 115 150 135 126 140 146 136 133 127
Height
766 770 775 780 784 788 791 793 797 800 802 804 806 808 809 812 814 815 817 819 820 821 822 824 826 828 829 830 831 832 833 833 835 836 836 838 838 839 840 840 841 842 843
764 771 775 780 785 789 792 794 798 801 803 806 808 810 811 814 816 818 819 821 823 824 826 827 829 831 832 834 834 835 837 837 839 840 841 842 843 843 845 844 844 846 846
764 770 776 780 785 789 793 796 799 803 805 807 810 812 814 817 818 820 822 824 826 827 829 831 832 833 835 836 837 839 841 842 843 844 846 847 848 847 848 848 849 849 850
764 770 775 780 784 790 794 798 801 804 806 809 811 814 816 819 821 823 825 827 829 830 832 834 835 837 839 840 841 842 844 846 847 848 849 851 852 852 852 852 853 853 854
765 771 776 780 785 790 794 798 802 805 807 810 813 815 818 820 822 825 828 831 831 833 835 837 838 841 842 843 845 847 848 849 851 852 853 854 855 856 856 856 857 858 858
766 771 776 780 785 790 795 799 803 805 808 811 814 816 819 822 825 826 829 832 834 837 838 841 843 845 847 848 849 851 852 852 854 855 857 858 858 859 860 860 860 861 862
766 771 777 782 786 790 795 800 803 806 809 812 815 818 821 824 827 829 832 835 837 840 842 844 847 848 850 852 853 855 855 856 857 858 860 861 862 863 863 863 864 864 866
767 772 778 783 788 792 796 800 803 807 811 814 816 819 822 825 828 832 835 838 840 843 846 847 849 851 853 855 857 858 859 860 860 862 863 864 866 866 867 867 868 868 869
769 774 778 785 790 794 798 801 805 809 812 815 818 821 825 828 831 835 838 841 843 845 848 850 852 854 856 858 860 861 862 864 864 866 867 869 870 870 870 871 872 872 873
770 775 778 784 789 794 799 802 806 810 813 816 820 823 827 830 834 838 842 844 846 848 851 853 855 856 858 860 862 863 864 865 868 870 872 872 873 873 873 875 875 876 876
771 774 778 783 788 794 799 803 808 811 814 818 821 824 828 832 837 841 843 845 847 850 853 855 857 859 861 863 865 867 867 868 869 871 875 876 876 876 877 878 879 879 879
767 772 777 782 787 792 798 803 808 812 816 820 823 828 830 833 836 839 843 847 850 853 856 859 861 863 865 866 867 869 869 872 873 874 876 878 879 880 880 881 882 883 884
761 770 775 780 786 790 795 802 807 812 816 821 823 824 828 833 837 841 845 850 854 857 860 863 865 867 869 869 871 872 873 874 877 879 879 880 883 884 882 882 885 887 887
759 765 771 778 783 789 794 800 805 810 815 819 822 826 829 833 839 843 848 852 856 860 863 866 867 869 869 871 873 877 877 878 879 880 881 882 885 885 887 886 888 889 890
754 763 770 775 780 787 791 797 803 809 813 817 822 827 830 835 840 843 849 854 857 861 864 867 869 871 872 874 875 877 878 881 883 884 883 883 886 888 887 887 889 889 892
753 759 767 771 777 783 789 794 800 807 813 819 824 829 833 836 839 843 850 855 858 862 864 867 869 872 875 878 878 880 882 883 886 885 884 886 887 888 889 888 890 891 893
749 755 762 769 775 782 787 793 799 806 812 818 824 828 833 837 839 844 850 855 859 863 864 867 871 874 879 881 882 883 884 885 887 888 888 887 889 889 890 891 891 892 895
747 753 761 768 774 780 785 792 797 804 811 817 823 827 833 837 841 845 850 854 858 861 864 868 872 875 880 882 885 886 888 888 891 891 892 892 892 891 891 892 896 896 898
745 750 757 763 769 776 782 790 797 803 810 817 823 828 832 837 842 845 850 853 857 861 866 870 874 877 880 884 886 888 891 892 894 897 896 896 895 893 894 896 897 902 903
741 748 755 759 765 772 780 788 797 803 810 815 821 826 831 834 841 845 849 853 857 861 866 870 874 878 882 884 888 892 895 897 899 899 900 900 899 898 900 901 903 907 910
739 744 749 756 763 768 777 785 795 799 807 814 819 824 829 833 839 844 848 853 858 861 865 870 874 877 883 886 887 896 900 902 902 904 905 904 905 906 907 906 908 911 912
736 742 749 755 759 766 771 780 789 797 805 811 816 823 827 832 837 842 846 851 856 860 864 869 872 877 882 885 889 893 902 908 907 908 909 910 911 911 911 912 914 915 917
733 739 745 751 757 765 772 775 785 794 803 810 815 821 826 831 835 840 844 849 854 857 862 867 871 875 879 884 888 888 896 900 909 912 912 912 913 913 915 916 917 918 920
731 738 743 749 756 764 768 771 777 786 795 804 810 816 824 830 834 838 843 848 852 856 860 865 870 874 876 880 885 886 888 889 898 912 914 915 915 916 917 918 919 921 922
730 735 741 748 753 759 766 771 774 783 792 799 808 815 821 827 832 837 841 846 849 854 858 863 867 872 875 878 881 885 888 890 893 899 910 915 916 918 919 920 921 922 924
728 734 738 743 750 756 763 770 771 779 787 795 804 811 817 823 829 835 839 843 847 851 854 860 865 869 873 876 879 882 884 888 891 894 902 912 915 920 920 921 922 923 925